STARLINK-32783, 62606

Orbit data source: Space-Track

STARLINK-32783, 62606 is a payload satellite owned by SpaceX/Seattle (US) in LEO that was launched on Mon, 13 Jan 2025 UTC via an FALCON 9 launch vehicle from the Air Force Eastern Test Range (AFETR). Payload-class satellites include a variety of spacecraft equipped with specific instruments for various scientific and technological missions. These include communications satellites like Starlink; space stations such as the ISS; scientific satellites like the Hubble; Earth observation satellites from companies like Planet Labs, Umbra, and HawkEye 360; GPS; miniature CubeSats for education and research; and military/defense satellites.

Loading next visibility...
Identifier
62606, 2025-008V
Orbit
LEO
Country
Flag of USUS
Related business
Manufacturer
SpaceX/Seattle
Mission
Operational Commercial Communications
Bus & Motor
STARLINK V2M, Unknown motor
Mass
730 kg wet, ~700 kg dry
Launch date (UTC)
2025-01-13 (10 months ago)
Launch vehicle
FALCON 9
Launch site
Air Force Eastern Test Range (AFETR)
Object type
Payload
Rocket body
Debris
Shape & HBR
Box + 2 Pan, 17.7 m
Radar Cross Section
33.884 m², Large (>1 m²)

Expand to show TLE details & history
Last TLE update: 1 day ago

TLE from 1 day ago
0 STARLINK-32783
1 62606U 25008V   25305.00082545  .00025456  00000-0  93131-3 0  9996
2 62606  43.0040 284.6422 0000518  22.4813 337.6061 15.27582371 45887
Epoch: 2025-11-01T00:01Z
TLE epoch observation values (Epoch: 2025-11-01T00:01:11.318Z)
Latitude
-0.00006°
Longitude
-116.1922°
Altitude
482.489 km
Speed
7.626 km/s
True Right ascension
18h 58m 34s
True Declination
0° 00' 00"
Sunlit
Object was in daylight at epoch
Visualization orbit readout
Latitude
Unknown
Longitude
Unknown
Altitude
Unknown
Speed
Unknown
Apparent Right ascension
Unknown
Apparent Declination
Unknown
Sunlit
N/A
Visualization observer readout
Local Sidereal Time
02:20:05
Azimuth
Unknown
Elevation
Unknown
Doppler factor
Unknown
Orbital elements
Apogee altitude
485.342 km
Perigee altitude
484.631 km
Semi-major axis
6,863.124 km
Eccentricity
0.00005
Inclination
43.004°
RAAN
284.6422°
Arg. of periapsis
22.4813°
True anomaly
337.60384°
Mean anomaly
337.6061°
Eccentric anomaly
337.60497°
Mean motion
3.81734 °/min
Orbital period
94.31 mins
BSTAR
0.00093131
Loading maneuver chart data...
Computing Atmospheric mass density...
Loading historical data...
Loading historical data...
Loading historical data...
Loading historical data...
Loading historical data...
Loading historical data...
Loading historical data...

Documentation

Showing up to 5 results
|